• In Uzbekistan
  • List of Countries
  • For 7 days
  • Water Temperature
  • Satellite Maps
  • Weather Map
  • Weather Widgets
  • user-avatar
    Login

    Hourly Weather Katerini

    Today, 23 August, Wednesday

    Time Temperature Precipitation Wind Pressure Humidity
    00:00 +22°C° 0 mm 1 mps 758 mmHg 48%
    01:00 +21°C° 0 mm 1 mps 759 mmHg 50%
    02:00 +21°C° 0 mm 1 mps 758 mmHg 54%
    03:00 +21°C° 0 mm 1 mps 758 mmHg 56%
    04:00 +20°C° 0 mm 1 mps 758 mmHg 58%
    05:00 +20°C° 0 mm 1 mps 758 mmHg 60%
    06:00 +21°C° 0 mm 1 mps 759 mmHg 56%
    07:00 +22°C° 0 mm 1 mps 759 mmHg 52%
    08:00 +24°C° 0 mm 1 mps 759 mmHg 49%
    09:00 +25°C° 0 mm 2 mps 759 mmHg 44%
    10:00 +27°C° 0 mm 2 mps 759 mmHg 39%
    11:00 +29°C° 0 mm 2 mps 759 mmHg 35%
    12:00 +30°C° 0 mm 2 mps 759 mmHg 33%
    13:00 +31°C° 0 mm 2 mps 758 mmHg 31%
    14:00 +32°C° 0 mm 2 mps 758 mmHg 29%
    15:00 +32°C° 0 mm 2 mps 758 mmHg 30%
    16:00 +31°C° 0 mm 2 mps 758 mmHg 31%
    17:00 +31°C° 0 mm 3 mps 757 mmHg 31%
    18:00 +29°C° 0 mm 2 mps 758 mmHg 38%
    19:00 +28°C° 0 mm 2 mps 758 mmHg 44%
    20:00 +26°C° 0 mm 2 mps 758 mmHg 51%
    21:00 +25°C° 0 mm 2 mps 759 mmHg 52%
    22:00 +25°C° 0 mm 1 mps 759 mmHg 53%
    23:00 +24°C° 0 mm 1 mps 760 mmHg 55%

    Tomorrow, 24 August, Thursday

    Time Temperature Precipitation Wind Pressure Humidity
    00:00 +24°C° 0 mm 1 mps 760 mmHg 55%
    01:00 +23°C° 0 mm 1 mps 760 mmHg 55%
    02:00 +23°C° 0 mm 1 mps 760 mmHg 55%
    03:00 +21°C° 0 mm 2 mps 760 mmHg 54%
    04:00 +21°C° 0 mm 2 mps 760 mmHg 52%
    05:00 +20°C° 0 mm 2 mps 760 mmHg 51%
    06:00 +23°C° 0 mm 2 mps 761 mmHg 47%
    07:00 +24°C° 0 mm 2 mps 761 mmHg 42%
    08:00 +25°C° 0 mm 2 mps 761 mmHg 38%
    09:00 +27°C° 0 mm 2 mps 761 mmHg 34%
    10:00 +28°C° 0 mm 2 mps 761 mmHg 30%
    11:00 +30°C° 0 mm 2 mps 761 mmHg 27%
    12:00 +31°C° 0 mm 2 mps 761 mmHg 25%
    13:00 +32°C° 0 mm 2 mps 761 mmHg 24%
    14:00 +34°C° 0 mm 2 mps 760 mmHg 22%
    15:00 +34°C° 0 mm 2 mps 760 mmHg 23%
    16:00 +34°C° 0 mm 2 mps 760 mmHg 23%
    17:00 +33°C° 0 mm 3 mps 759 mmHg 24%
    18:00 +30°C° 0 mm 2 mps 760 mmHg 30%
    19:00 +28°C° 0 mm 2 mps 760 mmHg 36%
    20:00 +26°C° 0 mm 2 mps 761 mmHg 42%
    21:00 +25°C° 0 mm 2 mps 761 mmHg 43%
    22:00 +24°C° 0 mm 1 mps 762 mmHg 45%
    23:00 +24°C° 0 mm 1 mps 762 mmHg 47%

    Day after tomorrow, 25 August, Friday

    Time Temperature Precipitation Wind Pressure Humidity
    00:00 +23°C° 0 mm 1 mps 762 mmHg 46%
    01:00 +23°C° 0 mm 1 mps 762 mmHg 46%
    02:00 +23°C° 0 mm 2 mps 762 mmHg 45%
    03:00 +21°C° 0 mm 2 mps 762 mmHg 44%
    04:00 +21°C° 0 mm 2 mps 762 mmHg 44%
    05:00 +21°C° 0 mm 2 mps 762 mmHg 43%
    06:00 +23°C° 0 mm 2 mps 762 mmHg 40%
    07:00 +24°C° 0 mm 2 mps 763 mmHg 37%
    08:00 +26°C° 0 mm 1 mps 763 mmHg 34%
    09:00 +27°C° 0 mm 2 mps 763 mmHg 32%
    10:00 +29°C° 0 mm 2 mps 763 mmHg 29%
    11:00 +31°C° 0 mm 2 mps 763 mmHg 26%
    12:00 +31°C° 0 mm 2 mps 762 mmHg 25%
    13:00 +32°C° 0 mm 2 mps 762 mmHg 24%
    14:00 +34°C° 0 mm 3 mps 761 mmHg 23%
    15:00 +33°C° 0 mm 3 mps 761 mmHg 24%
    16:00 +33°C° 0 mm 3 mps 761 mmHg 25%
    17:00 +33°C° 0 mm 3 mps 760 mmHg 27%
    18:00 +30°C° 0 mm 3 mps 761 mmHg 31%
    19:00 +28°C° 0 mm 2 mps 761 mmHg 36%
    20:00 +26°C° 0 mm 2 mps 761 mmHg 41%
    21:00 +25°C° 0 mm 1 mps 761 mmHg 42%
    22:00 +25°C° 0 mm 1 mps 762 mmHg 42%
    23:00 +24°C° 0 mm 1 mps 762 mmHg 43%

    26 August, Saturday

    Time Temperature Precipitation Wind Pressure Humidity
    00:00 +24°C° 0 mm 1 mps 762 mmHg 43%
    01:00 +23°C° 0 mm 1 mps 762 mmHg 44%
    02:00 +23°C° 0 mm 1 mps 762 mmHg 45%
    03:00 +23°C° 0 mm 1 mps 762 mmHg 47%
    04:00 +22°C° 0 mm 1 mps 762 mmHg 48%
    05:00 +22°C° 0 mm 1 mps 761 mmHg 49%
    06:00 +23°C° 0 mm 1 mps 762 mmHg 46%
    07:00 +25°C° 0 mm 1 mps 762 mmHg 43%
    08:00 +26°C° 0 mm 1 mps 762 mmHg 40%
    09:00 +28°C° 0 mm 1 mps 761 mmHg 36%
    10:00 +30°C° 0 mm 1 mps 761 mmHg 32%
    11:00 +32°C° 0 mm 2 mps 761 mmHg 29%
    12:00 +32°C° 0 mm 2 mps 761 mmHg 27%
    13:00 +34°C° 0 mm 2 mps 760 mmHg 25%
    14:00 +35°C° 0 mm 2 mps 760 mmHg 23%
    15:00 +35°C° 0 mm 3 mps 759 mmHg 24%
    16:00 +35°C° 0 mm 3 mps 759 mmHg 24%
    17:00 +34°C° 0 mm 3 mps 759 mmHg 24%
    18:00 +31°C° 0 mm 3 mps 759 mmHg 28%
    19:00 +29°C° 0 mm 2 mps 759 mmHg 32%
    20:00 +27°C° 0 mm 2 mps 759 mmHg 36%
    21:00 +26°C° 0 mm 2 mps 760 mmHg 36%
    22:00 +26°C° 0 mm 1 mps 760 mmHg 37%
    23:00 +25°C° 0 mm 1 mps 760 mmHg 38%

    27 August, Sunday

    Time Temperature Precipitation Wind Pressure Humidity
    00:00 +25°C° 0 mm 1 mps 760 mmHg 38%
    01:00 +25°C° 0 mm 1 mps 760 mmHg 39%
    02:00 +24°C° 0 mm 1 mps 760 mmHg 40%
    03:00 +24°C° 0 mm 1 mps 760 mmHg 42%
    04:00 +24°C° 0 mm 1 mps 759 mmHg 43%
    05:00 +23°C° 0 mm 1 mps 759 mmHg 45%
    06:00 +25°C° 0 mm 1 mps 759 mmHg 42%
    07:00 +26°C° 0 mm 1 mps 759 mmHg 39%
    08:00 +27°C° 0 mm 1 mps 759 mmHg 37%
    09:00 +29°C° 0 mm 1 mps 759 mmHg 33%
    10:00 +31°C° 0 mm 1 mps 759 mmHg 30%
    11:00 +33°C° 0 mm 1 mps 759 mmHg 27%
    12:00 +34°C° 0 mm 1 mps 758 mmHg 25%
    13:00 +36°C° 0 mm 2 mps 757 mmHg 24%
    14:00 +36°C° 0 mm 2 mps 757 mmHg 23%
    15:00 +36°C° 0 mm 3 mps 757 mmHg 24%
    16:00 +36°C° 0 mm 3 mps 756 mmHg 25%
    17:00 +35°C° 0 mm 3 mps 756 mmHg 26%
    18:00 +33°C° 0 mm 3 mps 756 mmHg 31%
    19:00 +30°C° 0 mm 3 mps 757 mmHg 35%
    20:00 +28°C° 0 mm 2 mps 757 mmHg 40%
    21:00 +27°C° 0 mm 2 mps 757 mmHg 40%
    22:00 +27°C° 0 mm 2 mps 757 mmHg 41%
    23:00 +26°C° 0 mm 1 mps 757 mmHg 41%

    28 August, Monday

    Time Temperature Precipitation Wind Pressure Humidity
    00:00 +26°C° 0 mm 1 mps 757 mmHg 41%
    01:00 +25°C° 0 mm 1 mps 757 mmHg 42%
    02:00 +25°C° 0 mm 1 mps 757 mmHg 42%
    03:00 +25°C° 0 mm 1 mps 757 mmHg 43%
    04:00 +24°C° 0 mm 1 mps 757 mmHg 44%
    05:00 +24°C° 0 mm 1 mps 757 mmHg 45%
    06:00 +25°C° 0 mm 1 mps 757 mmHg 42%
    07:00 +27°C° 0 mm 1 mps 757 mmHg 40%
    08:00 +28°C° 0 mm 1 mps 757 mmHg 37%
    09:00 +30°C° 0 mm 1 mps 757 mmHg 33%
    10:00 +32°C° 0 mm 1 mps 756 mmHg 30%
    11:00 +34°C° 0 mm 1 mps 756 mmHg 26%
    12:00 +35°C° 0 mm 1 mps 756 mmHg 25%
    13:00 +37°C° 0 mm 2 mps 755 mmHg 23%
    14:00 +37°C° 0 mm 2 mps 754 mmHg 22%
    15:00 +37°C° 0 mm 3 mps 754 mmHg 23%
    16:00 +36°C° 0 mm 3 mps 754 mmHg 25%
    17:00 +36°C° 0 mm 3 mps 754 mmHg 26%
    18:00 +34°C° 0 mm 3 mps 754 mmHg 31%
    19:00 +31°C° 0 mm 3 mps 754 mmHg 36%
    20:00 +28°C° 0 mm 2 mps 755 mmHg 41%
    21:00 +28°C° 0 mm 2 mps 755 mmHg 42%
    22:00 +27°C° 0 mm 1 mps 755 mmHg 42%
    23:00 +27°C° 0 mm 1 mps 755 mmHg 43%
    Show more